Date String (YYYY-MM-DD hh:mm:ss) UTC,Instrument flags,Ambient pressure (hPa),Sample flow (lpm),Bypass flow (lpm),Sample temperature (°C),Ambient temperature (°C),ASC tube jacket temperature (°C),LED temperature (°C),Box temperature (°C),Sample RH (%),Span deviation,Mass concentration (μg/m³),Mass concentration (μg/m³),Mass concentration (μg/m³)
DateTimeUTC,F1_M11,P_M11,Q1_M11,Q2_M11,T1_M11,T2_M11,T3_M11,T4_M11,T5_M11,U1_M11,ZSPAN_M11,X0_M11,X2_M11,X1_M11
2022-09-23 06:00:00,,0826.5,4.99,0.00,30.5,28.9,00.0,39.2,32.2,26.1,-002.9,0013.99,0010.98,0010.65
2022-09-23 06:01:00,,0826.5,5.01,0.00,30.5,28.9,00.0,39.2,32.3,26.1,-003.0,0013.95,0010.89,0010.55
2022-09-23 06:02:00,,0826.5,4.99,0.00,30.5,28.9,00.0,39.2,32.3,26.2,-003.2,0013.89,0010.82,0010.48
2022-09-23 06:03:00,,0826.5,5.01,0.00,30.5,29.0,00.0,39.2,32.3,26.3,-003.2,0013.81,0010.80,0010.46
2022-09-23 06:04:00,,0826.5,5.00,0.00,30.5,29.0,00.0,39.2,32.3,26.3,-003.4,0013.78,0010.82,0010.49
2022-09-23 06:05:00,,0826.5,5.00,0.00,30.5,29.0,00.0,39.2,32.3,26.3,-003.3,0013.77,0010.84,0010.52
2022-09-23 06:06:00,,0826.5,5.00,0.00,30.5,29.0,00.0,39.2,32.3,26.3,-003.6,0013.86,0010.87,0010.54
2022-09-23 06:07:00,,0826.5,5.01,0.00,30.5,29.0,00.0,39.2,32.3,26.3,-003.6,0014.30,0010.89,0010.52
2022-09-23 06:08:00,,0826.5,4.99,0.00,30.5,29.0,00.0,39.2,32.3,26.4,-003.5,0014.38,0010.92,0010.55
2022-09-23 06:09:00,,0826.5,5.01,0.00,30.5,29.0,00.0,39.2,32.3,26.4,-003.4,0014.51,0011.04,0010.66
2022-09-23 06:10:00,,0826.5,4.99,0.00,30.5,29.0,00.0,39.2,32.3,26.4,-003.6,0014.62,0011.14,0010.76
2022-09-23 06:11:00,,0826.5,5.01,0.00,30.5,29.0,00.0,39.2,32.3,26.5,-003.3,0014.70,0011.28,0010.90
2022-09-23 06:12:00,,0826.5,5.00,0.00,30.5,29.0,00.0,39.2,32.3,26.9,-003.1,0014.95,0011.51,0011.11
2022-09-23 06:13:00,,0826.5,5.00,0.00,30.5,29.0,00.0,39.2,32.3,27.3,-002.9,0015.08,0011.66,0011.27
2022-09-23 06:14:00,,0826.5,5.01,0.00,30.5,28.9,00.0,39.2,32.3,26.6,-002.7,0015.01,0011.63,0011.27
2022-09-23 06:15:00,,0826.5,5.00,0.00,30.5,28.9,00.0,39.2,32.3,26.5,-002.6,0015.02,0011.62,0011.25
2022-09-23 06:16:00,,0826.5,4.99,0.00,30.5,29.0,00.0,39.2,32.3,26.5,-002.7,0015.09,0011.65,0011.25
2022-09-23 06:17:00,,0826.5,5.00,0.00,30.5,29.0,00.0,39.2,32.3,26.5,-002.5,0015.04,0011.65,0011.26
2022-09-23 06:18:00,,0826.5,5.01,0.00,30.5,29.0,00.0,39.2,32.3,26.4,-002.3,0014.62,0011.66,0011.28
2022-09-23 06:19:00,,0826.5,4.99,0.00,30.5,29.0,00.0,39.2,32.3,26.3,-002.4,0014.52,0011.61,0011.24
2022-09-23 06:20:00,,0826.5,5.00,0.00,30.5,29.0,00.0,39.2,32.3,26.3,-002.5,0014.45,0011.49,0011.12
2022-09-23 06:21:00,,0826.5,4.99,0.00,30.5,29.0,00.0,39.2,32.3,26.3,-002.4,0014.52,0011.36,0010.98
2022-09-23 06:22:00,,0826.5,5.00,0.00,30.5,29.0,00.0,39.2,32.3,26.3,-002.4,0014.44,0011.23,0010.85
2022-09-23 06:23:00,,0826.5,5.01,0.00,30.5,29.0,00.0,39.2,32.3,26.3,-002.5,0014.19,0011.04,0010.69
2022-09-23 06:24:00,,0826.5,5.00,0.00,30.5,29.0,00.0,39.2,32.3,26.3,-002.6,0014.01,0010.89,0010.53
2022-09-23 06:25:00,,0826.5,5.00,0.00,30.5,29.0,00.0,39.2,32.3,26.3,-002.9,0013.97,0010.85,0010.49
2022-09-23 06:26:00,,0826.6,5.00,0.00,30.5,28.9,00.0,39.2,32.3,26.3,-003.0,0013.87,0010.78,0010.42
2022-09-23 06:27:00,,0826.5,5.00,0.00,30.5,28.9,00.0,39.2,32.3,26.3,-003.0,0013.69,0010.66,0010.32
2022-09-23 06:28:00,,0826.5,5.00,0.00,30.5,28.9,00.0,39.2,32.3,26.3,-003.0,0013.56,0010.54,0010.20
2022-09-23 06:29:00,,0826.5,5.00,0.00,30.5,28.9,00.0,39.2,32.3,26.3,-003.1,0013.52,0010.46,0010.11
2022-09-23 06:30:00,,0826.5,4.99,0.00,30.5,28.9,00.0,39.2,32.3,26.3,-002.9,0013.39,0010.36,0010.00
2022-09-23 06:31:00,,0826.5,5.01,0.00,30.5,29.0,00.0,39.2,32.3,26.3,-002.8,0013.31,0010.27,0009.90
2022-09-23 06:32:00,,0826.4,4.99,0.00,30.5,29.0,00.0,39.2,32.3,26.3,-002.7,0013.05,0010.20,0009.81
2022-09-23 06:33:00,,0826.5,5.00,0.00,30.5,29.0,00.0,39.2,32.3,26.3,-003.1,0012.77,0010.07,0009.71
2022-09-23 06:34:00,,0826.5,5.01,0.00,30.5,29.0,00.0,39.2,32.3,26.3,-003.1,0012.81,0009.95,0009.59
2022-09-23 06:35:00,,0826.5,4.98,0.00,30.5,29.0,00.0,39.2,32.3,26.3,-003.1,0012.92,0009.87,0009.50
2022-09-23 06:36:00,,0826.5,5.01,0.00,30.5,29.0,00.0,39.2,32.3,26.3,-003.1,0012.83,0009.77,0009.41
2022-09-23 06:37:00,,0826.4,5.01,0.00,30.5,29.0,00.0,39.2,32.3,26.2,-003.0,0012.70,0009.68,0009.32
2022-09-23 06:38:00,,0826.3,4.98,0.00,30.5,29.0,00.0,39.2,32.3,26.3,-003.1,0012.86,0009.62,0009.26
2022-09-23 06:39:00,,0826.4,5.00,0.00,30.5,29.0,00.0,39.2,32.3,26.3,-003.2,0013.02,0009.55,0009.20
2022-09-23 06:40:00,,0826.5,5.01,0.00,30.5,29.0,00.0,39.2,32.3,26.3,-003.1,0012.90,0009.47,0009.13
2022-09-23 06:41:00,,0826.4,4.98,0.00,30.5,29.0,00.0,39.3,32.3,26.2,-003.5,0012.87,0009.42,0009.08
2022-09-23 06:42:00,,0826.3,5.01,0.00,30.5,29.0,00.0,39.2,32.3,26.2,-003.6,0013.35,0009.37,0009.06
2022-09-23 06:43:00,,0826.2,5.00,0.00,30.5,29.0,00.0,39.3,32.3,26.1,-003.7,0013.24,0009.31,0009.04
2022-09-23 06:44:00,,0826.2,4.99,0.00,30.5,29.0,00.0,39.3,32.3,26.0,-003.5,0013.23,0009.30,0009.02
2022-09-23 06:45:00,,0826.4,5.00,0.00,30.5,29.0,00.0,39.3,32.3,26.0,-003.4,0013.10,0009.30,0009.02
2022-09-23 06:46:00,,0826.4,5.00,0.00,30.5,29.0,00.0,39.3,32.3,26.0,-003.4,0013.09,0009.31,0009.02
2022-09-23 06:47:00,,0826.2,5.01,0.00,30.5,29.0,00.0,39.3,32.3,26.0,-003.3,0013.21,0009.37,0009.07
2022-09-23 06:48:00,,0826.2,5.00,0.00,30.5,29.0,00.0,39.3,32.3,26.0,-003.4,0013.30,0009.43,0009.12
2022-09-23 06:49:00,,0826.2,4.99,0.00,30.5,29.0,00.0,39.3,32.3,26.0,-003.3,0013.17,0009.47,0009.16
2022-09-23 06:50:00,,0826.2,5.01,0.00,30.5,29.0,00.0,39.3,32.3,26.0,-003.2,0012.94,0009.54,0009.22
2022-09-23 06:51:00,,0826.2,4.99,0.00,30.5,29.0,00.0,39.3,32.3,26.3,-003.1,0013.34,0009.62,0009.29
2022-09-23 06:52:00,,0826.2,5.00,0.00,30.5,29.0,00.0,39.2,32.3,27.0,-003.0,0013.78,0009.63,0009.31
2022-09-23 06:53:00,,0826.2,5.01,0.00,30.5,29.0,00.0,39.3,32.3,26.3,-003.0,0013.30,0009.67,0009.35
2022-09-23 06:54:00,,0826.2,4.99,0.00,30.5,29.0,00.0,39.3,32.3,26.1,-002.8,0013.36,0009.74,0009.41
2022-09-23 06:55:00,,0826.2,5.01,0.00,30.5,29.0,00.0,39.3,32.3,26.0,-002.8,0013.38,0009.78,0009.45
2022-09-23 06:56:00,,0826.2,5.01,0.00,30.5,29.0,00.0,39.3,32.3,26.0,-002.8,0013.44,0009.80,0009.47
2022-09-23 06:57:00,,0826.2,4.99,0.00,30.5,29.0,00.0,39.3,32.3,26.0,-002.8,0013.22,0009.81,0009.49
2022-09-23 06:58:00,,0826.2,4.99,0.00,30.5,29.0,00.0,39.3,32.3,26.0,-002.9,0013.18,0009.81,0009.49
2022-09-23 06:59:00,,0826.2,5.00,0.00,30.5,29.0,00.0,39.3,32.3,26.0,-002.9,0013.44,0009.81,0009.49
